Weather reports worldwide

Advertisment
Palma De Mallorca/Son San Ju, Spain (8306): temperature & dewpoint: 17.03.2019 10:00:00 - 23.03.2019 10:00:00 (CET)Palma De Mallorca/Son San Ju, Spain (8306): wind speed: 17.03.2019 10:00:00 - 23.03.2019 10:00:00 (CET)Palma De Mallorca/Son San Ju, Spain (8306): wind direction: 17.03.2019 10:00:00 - 23.03.2019 10:00:00 (CET)Palma De Mallorca/Son San Ju, Spain (8306): reduced air pressure: 17.03.2019 10:00:00 - 23.03.2019 10:00:00 (CET)Palma De Mallorca/Son San Ju, Spain (8306): visibility: 17.03.2019 10:00:00 - 23.03.2019 10:00:00 (CET)
Date & Time tt [°C] td [°C] ff [km/h] ff [kn] dd ppp [hPa] vv [km]
23.03.2019 10:00:00 18,3 7,6 18 10 ENE 1026,1 10
23.03.2019 09:00:00 16,7 9,1 16 9 NE 1025,8 10
23.03.2019 08:00:00 13,6 9,2 13 7 NNE 1025,8 10
23.03.2019 07:00:00 12,1 10,0 13 7 NE 1025,5 10
23.03.2019 06:00:00 11,2 9,1 15 8 NNE 1025,1 10
23.03.2019 05:00:00 11,9 10,5 5 3 ENE 1024,7 10
23.03.2019 04:00:00 10,9 9,7 8 4 NE 1024,8 10
23.03.2019 03:00:00 10,1 9,1 4 2 NNE 1025,1 10
23.03.2019 02:00:00 11,5 10,4 4 2 - 1025,6 10
23.03.2019 01:00:00 12,1 11,0 11 6 E 1025,6 15
23.03.2019 00:00:00 12,2 10,6 11 6 ENE 1025,9 10
22.03.2019 23:00:00 12,7 10,9 15 8 NE 1025,9 10
22.03.2019 22:00:00 13,1 11,2 16 9 ENE 1025,7 15
22.03.2019 21:00:00 13,8 11,1 21 11 ENE 1025,4 10
22.03.2019 20:00:00 14,6 10,8 15 8 ENE 1025,0 10
22.03.2019 19:00:00 15,1 10,5 22 12 ENE 1024,4 10
22.03.2019 18:00:00 15,9 9,1 24 13 ENE 1024,0 10
22.03.2019 17:00:00 17,0 10,4 24 13 ENE 1023,9 10
22.03.2019 16:00:00 19,5 8,3 24 13 ENE 1024,0 10
22.03.2019 15:00:00 19,7 6,7 24 13 ENE 1024,4 10
22.03.2019 14:00:00 19,8 8,5 29 16 ENE 1024,7 10
22.03.2019 13:00:00 19,7 7,3 31 17 ENE 1025,0 10
22.03.2019 12:00:00 18,8 8,4 35 19 ENE 1025,1 10
22.03.2019 11:00:00 17,8 9,0 34 18 ENE 1025,4 10
22.03.2019 10:00:00 16,8 9,5 29 16 NE 1025,4 10
22.03.2019 09:00:00 15,5 8,6 16 9 NE 1025,0 10
22.03.2019 08:00:00 13,2 7,8 11 6 NE 1025,1 10
22.03.2019 07:00:00 10,9 8,1 15 8 ENE 1024,6 10
22.03.2019 06:00:00 9,8 7,5 18 10 ENE 1024,3 10
22.03.2019 05:00:00 8,4 5,9 11 6 NE 1024,1 10
22.03.2019 04:00:00 8,9 6,0 5 3 WNW 1024,3 10
22.03.2019 03:00:00 10,2 7,2 15 8 NE 1024,6 10
22.03.2019 02:00:00 10,7 6,6 2 1 - 1024,8 10
22.03.2019 01:00:00 11,3 7,0 15 8 NNE 1025,0 20
22.03.2019 00:00:00 12,1 7,2 18 10 NNE 1025,5 10
21.03.2019 23:00:00 11,9 7,0 16 9 NNE 1025,9 10
21.03.2019 22:00:00 11,9 6,2 22 12 NE 1025,8 10
21.03.2019 21:00:00 11,9 6,5 21 11 NE 1025,5 10
21.03.2019 20:00:00 12,8 6,4 16 9 NE 1025,3 10
21.03.2019 19:00:00 13,4 7,1 26 14 NE 1025,0 10
21.03.2019 18:00:00 14,0 5,3 35 19 NE 1024,5 10
21.03.2019 17:00:00 14,5 5,3 31 17 NE 1024,3 10
21.03.2019 16:00:00 15,3 5,5 35 19 NE 1024,3 10
21.03.2019 15:00:00 15,3 4,6 34 18 NE 1024,6 10
21.03.2019 14:00:00 15,0 5,0 35 19 NE 1025,0 10
21.03.2019 13:00:00 15,7 5,6 31 17 NE 1025,7 30
21.03.2019 12:00:00 15,6 5,4 34 18 ENE 1025,9 10
21.03.2019 11:00:00 14,8 6,4 35 19 NE 1025,9 10
21.03.2019 10:00:00 14,4 5,1 24 13 NE 1025,7 10
21.03.2019 09:00:00 13,7 6,6 24 13 ENE 1025,4 10
21.03.2019 08:00:00 11,1 4,8 11 6 NE 1025,1 10
21.03.2019 07:00:00 9,3 2,4 9 5 NE 1024,7 10
21.03.2019 06:00:00 9,3 2,4 8 4 NE 1024,6 10
21.03.2019 05:00:00 8,6 3,1 8 4 ENE 1024,8 10
21.03.2019 04:00:00 9,8 3,1 15 8 NNE 1024,9 18
21.03.2019 03:00:00 6,7 3,7 5 3 ENE 1025,6 10
21.03.2019 02:00:00 6,1 4,4 8 4 ENE 1026,0 10
21.03.2019 01:00:00 7,1 4,6 5 3 ENE 1026,6 10
21.03.2019 00:00:00 7,4 4,6 8 4 NE 1027,0 10
20.03.2019 23:00:00 8,2 4,2 9 5 N 1027,2 10
20.03.2019 22:00:00 9,2 4,6 11 6 N 1027,4 10
20.03.2019 21:00:00 9,7 4,9 11 6 NE 1027,2 10
20.03.2019 20:00:00 10,7 5,2 18 10 NE 1026,6 10
20.03.2019 19:00:00 12,4 6,8 21 11 NE 1026,3 30
20.03.2019 18:00:00 13,3 6,9 29 16 NE 1025,8 10
20.03.2019 17:00:00 11,1 8,5 9 5 NNW 1025,8 10
20.03.2019 16:00:00 9,3 7,4 11 6 NNE 1026,3 10
20.03.2019 15:00:00 8,9 6,6 29 16 NE 1026,7 9
20.03.2019 14:00:00 10,9 6,2 31 17 NE 1026,5 10
20.03.2019 13:00:00 13,6 4,7 9 5 NE 1026,2 10
20.03.2019 12:00:00 10,2 6,9 16 9 E 1026,9 10
20.03.2019 11:00:00 12,3 4,2 18 10 NE 1026,4 10
20.03.2019 10:00:00 13,1 2,0 28 15 NNE 1026,4 30
20.03.2019 09:00:00 12,9 2,3 24 13 NE 1026,3 10
20.03.2019 08:00:00 12,1 5,1 16 9 NE 1026,1 10
20.03.2019 07:00:00 10,4 5,2 13 7 NE 1025,6 20
20.03.2019 06:00:00 10,5 6,3 11 6 ENE 1025,1 10
20.03.2019 05:00:00 8,7 4,5 8 4 NW 1024,8 10
20.03.2019 04:00:00 8,7 4,8 9 5 NNE 1024,6 10
20.03.2019 03:00:00 9,7 5,7 13 7 ENE 1024,8 10
20.03.2019 02:00:00 11,2 6,3 21 11 ENE 1025,2 10
20.03.2019 01:00:00 11,5 6,6 18 10 NE 1025,0 10
20.03.2019 00:00:00 10,4 6,2 13 7 ENE 1025,0 10
19.03.2019 23:00:00 9,2 6,1 4 2 ENE 1025,0 10
19.03.2019 22:00:00 9,4 5,4 2 1 NNE 1024,7 10
19.03.2019 21:00:00 9,5 4,8 2 1 - 1024,5 10
19.03.2019 20:00:00 9,2 5,2 4 2 NNE 1024,0 10
19.03.2019 19:00:00 11,2 5,9 5 3 E 1023,7 10
19.03.2019 18:00:00 12,4 5,3 21 11 ENE 1023,1 10
19.03.2019 17:00:00 13,4 4,8 22 12 ENE 1022,7 10
19.03.2019 16:00:00 13,5 6,1 28 15 ENE 1022,6 10
19.03.2019 15:00:00 13,1 6,6 16 9 ENE 1022,5 10
19.03.2019 14:00:00 12,6 7,6 21 11 ENE 1023,2 10
19.03.2019 13:00:00 12,0 7,5 2 1 N 1023,5 20
19.03.2019 12:00:00 10,5 8,2 5 3 S 1023,6 10
19.03.2019 11:00:00 9,9 8,2 11 6 E 1023,9 8
19.03.2019 10:00:00 9,9 9,4 8 4 NNE 1023,5 6
19.03.2019 09:00:00 9,4 8,8 13 7 NW 1023,0 8
19.03.2019 08:00:00 9,0 9,0 13 7 ESE 1022,1 10
19.03.2019 07:00:00 7,9 7,8 4 2 - 1022,2 10
19.03.2019 06:00:00 7,4 7,4 0 0 N 1022,3 10
19.03.2019 05:00:00 6,9 6,9 0 0 N 1022,5 10
19.03.2019 04:00:00 6,9 6,9 0 0 N 1022,6 10
19.03.2019 03:00:00 6,3 6,2 5 3 NNE 1023,2 10
19.03.2019 02:00:00 6,9 6,8 0 0 N 1024,0 10
19.03.2019 01:00:00 7,3 7,2 5 3 ENE 1024,4 10
19.03.2019 00:00:00 7,0 6,9 5 3 NE 1024,5 10
18.03.2019 23:00:00 7,6 7,3 4 2 - 1024,6 10
18.03.2019 22:00:00 8,7 8,2 4 2 NE 1024,3 10
18.03.2019 21:00:00 9,8 8,8 4 2 - 1024,0 10
18.03.2019 20:00:00 10,8 9,1 4 2 - 1023,7 10
18.03.2019 19:00:00 12,3 10,2 9 5 E 1023,3 10
18.03.2019 18:00:00 13,0 10,4 13 7 ENE 1022,8 10
18.03.2019 17:00:00 13,9 8,8 15 8 E 1022,6 10
18.03.2019 16:00:00 15,3 7,8 2 1 NE 1022,4 15
18.03.2019 15:00:00 15,0 7,5 8 4 E 1022,7 10
18.03.2019 14:00:00 14,8 7,6 9 5 ENE 1023,2 10
18.03.2019 13:00:00 14,9 7,4 9 5 E 1023,7 10
18.03.2019 12:00:00 14,4 6,7 11 6 ENE 1023,7 10
18.03.2019 11:00:00 14,7 6,2 21 11 ENE 1023,4 10
18.03.2019 10:00:00 15,1 5,9 24 13 ENE 1023,0 10
18.03.2019 09:00:00 13,7 5,8 13 7 NE 1022,4 10
18.03.2019 08:00:00 12,5 5,9 13 7 NE 1021,7 10
18.03.2019 07:00:00 11,2 5,9 0 0 N 1021,3 25
18.03.2019 06:00:00 12,3 6,8 15 8 ENE 1020,3 10
18.03.2019 05:00:00 12,7 6,7 24 13 ENE 1019,9 10
18.03.2019 04:00:00 13,1 6,9 29 16 ENE 1019,7 20
18.03.2019 03:00:00 13,8 7,1 29 16 ENE 1019,7 10
18.03.2019 02:00:00 14,0 8,0 31 17 ENE 1019,3 10
18.03.2019 01:00:00 14,1 7,8 39 21 ENE 1018,9 20
18.03.2019 00:00:00 14,6 8,1 34 18 ENE 1018,4 10
17.03.2019 23:00:00 15,3 9,9 26 14 ENE 1017,6 10
17.03.2019 22:00:00 15,2 9,3 26 14 ENE 1017,1 20
17.03.2019 21:00:00 15,4 9,3 24 13 ENE 1016,2 10
17.03.2019 20:00:00 15,6 10,6 29 16 ENE 1015,4 10
17.03.2019 19:00:00 16,0 12,2 26 14 ENE 1014,6 10
17.03.2019 18:00:00 19,3 9,6 4 2 SSE 1013,5 10
17.03.2019 17:00:00 19,4 12,4 8 4 S 1012,9 10
17.03.2019 16:00:00 19,4 12,8 18 10 SW 1012,9 30
17.03.2019 15:00:00 20,3 11,9 21 11 SSW 1013,1 10
17.03.2019 14:00:00 19,9 12,2 26 14 SW 1013,6 10
17.03.2019 13:00:00 19,7 12,0 26 14 SSW 1014,5 30
17.03.2019 12:00:00 20,2 9,9 21 11 SW 1015,1 10
17.03.2019 11:00:00 21,4 5,9 11 6 SW 1015,2 10
17.03.2019 10:00:00 19,4 8,3 2 1 SSW 1015,3 10

tt = temperature
td = dewpoint
ff = wind speed
dd = wind direction
ppp = reduced air pressure
vv = visibility

Next stations